TimeMDT,TemperatureF,Dew PointF,Humidity,Sea Level PressureIn,VisibilityMPH,Wind Direction,Wind SpeedMPH,Gust SpeedMPH,PrecipitationIn,Events,Conditions,WindDirDegrees,DateUTC
12:55 AM,46.0,37.9,73,29.71,10.0,WSW,8.1,-,N/A,,Mostly Cloudy,250,2011-10-12 06:55:00
1:55 AM,52.0,41.0,66,29.72,10.0,West,5.8,-,N/A,,Mostly Cloudy,270,2011-10-12 07:55:00
2:55 AM,55.0,45.0,69,29.73,10.0,WNW,9.2,-,0.00,Rain,Light Rain,300,2011-10-12 08:55:00
3:55 AM,54.0,46.9,77,29.75,10.0,NW,12.7,-,0.00,Rain,Light Rain,320,2011-10-12 09:55:00
4:55 AM,53.1,44.1,71,29.77,10.0,WNW,13.8,-,0.00,,Partly Cloudy,300,2011-10-12 10:55:00
5:55 AM,53.1,42.1,66,29.78,10.0,WNW,18.4,24.2,N/A,,Clear,300,2011-10-12 11:55:00
6:55 AM,54.0,39.9,59,29.82,10.0,NW,20.7,27.6,N/A,,Mostly Cloudy,310,2011-10-12 12:55:00
7:55 AM,55.0,39.9,57,29.86,10.0,NW,26.5,34.5,0.00,,Overcast,310,2011-10-12 13:55:00
8:55 AM,51.1,44.1,77,29.90,10.0,WNW,18.4,28.8,0.00,Rain,Light Rain,290,2011-10-12 14:55:00
9:55 AM,55.0,42.1,62,29.91,10.0,NW,20.7,31.1,0.00,,Overcast,310,2011-10-12 15:55:00
10:55 AM,52.0,46.0,80,29.93,10.0,NW,8.1,-,0.02,Rain,Light Rain,320,2011-10-12 16:55:00
11:55 AM,57.9,41.0,53,29.91,10.0,WNW,25.3,31.1,0.00,,Overcast,300,2011-10-12 17:55:00
12:55 PM,63.0,39.0,41,29.88,10.0,WNW,23.0,33.4,N/A,,Mostly Cloudy,300,2011-10-12 18:55:00
1:55 PM,66.9,35.1,31,29.85,10.0,NW,21.9,36.8,N/A,,Clear,310,2011-10-12 19:55:00
2:55 PM,68.0,33.1,27,29.85,10.0,NW,24.2,34.5,N/A,,Clear,320,2011-10-12 20:55:00
3:55 PM,66.9,32.0,27,29.86,10.0,NW,21.9,31.1,N/A,,Clear,310,2011-10-12 21:55:00
4:55 PM,66.0,32.0,28,29.87,10.0,NW,21.9,28.8,N/A,,Clear,320,2011-10-12 22:55:00
5:55 PM,62.1,33.1,34,29.90,10.0,WNW,11.5,-,N/A,,Clear,300,2011-10-12 23:55:00
6:55 PM,55.0,33.1,43,29.92,10.0,WNW,9.2,-,N/A,,Clear,300,2011-10-13 00:55:00
7:55 PM,51.1,33.1,50,29.93,10.0,West,9.2,-,N/A,,Clear,280,2011-10-13 01:55:00
8:55 PM,48.9,33.1,54,29.94,10.0,WSW,6.9,-,N/A,,Clear,240,2011-10-13 02:55:00
9:55 PM,46.0,33.1,61,29.93,10.0,West,9.2,-,N/A,,Clear,260,2011-10-13 03:55:00
10:55 PM,45.0,33.1,63,29.95,10.0,West,8.1,-,N/A,,Clear,280,2011-10-13 04:55:00
11:55 PM,41.0,32.0,70,29.95,10.0,West,9.2,-,N/A,,Clear,260,2011-10-13 05:55:00